Location: Newark
(45.5167°N, 11.1667°E)
Time: 20:49:37
(UTC+00:00)

Explorer 7 - Pass Details

Date: 17 December 2019
Orbit: 485 x 679 km, 50.3° (Epoch: 25 January)

Event Time Altitude Azimuth Distance (km) Brightness Sun altitude
Rises 15:24:02 0° 279° (W) 2,989 11.3 0.4°
Reaches altitude 10° 15:26:26 10° 286° (WNW) 2,094 10.4 0.1°
Maximum altitude 15:31:09 47° 0° (N) 894 7.7 -0.6°
Drops below altitude 10° 15:35:54 10° 75° (ENE) 2,117 9.2 -1.3°
Sets 15:38:21 0° 81° (E) 3,025 10.0 -1.7°
